RH
69 68 68 64 52 54 77 95 100 98 100 100 100 100 100 100 100 87 60 36 24 22 28 39 93 32 84 89 54 59 56 97 94 70 66 39 28 28 57 17 44 22 36 50
49 61 59 55 58 73 68 76 76 68 55 94 100 100 77 40 29 32 34 42 44 80 97 100 83 64 94 100 100 100 94 100 74 28 10 6 6 8 9 9 11 28 56 40
54 49 48 40 41 35 28 12 8 14 24 18 20 33 63 71 61 76 76 81 56 98 100 100 100 100 90 100 100 100 100 71 12 10 14 11 14 12 7 7 18 66 88 76
60 59 43 32 12 5 3 3 6 6 9 17 34 62 86 68 63 57 73 71 66 100 100 100 100 100 100 100 100 100 100 32 26 40 16 20 14 8 7 7 8 36 91 83
55 32 10 4 3 4 4 4 6 9 31 88 95 99 92 100 84 52 59 52 82 100 100 100 100 100 100 81 70 76 91 61 61 56 22 26 12 11 11 6 5 10 80 70
5 3 3 3 4 4 5 5 6 13 26 71 71 95 92 94 92 51 53 88 100 100 100 100 100 100 100 86 71 68 66 67 54 32 34 23 16 14 9 7 4 8 89 94
3 4 4 5 6 7 6 12 13 33 58 61 52 64 52 47 65 50 85 100 100 100 100 100 100 97 90 96 69 67 72 66 60 54 31 16 11 9 6 4 4 7 94 98
4 5 6 9 9 10 22 43 45 52 58 74 89 94 100 100 100 100 100 100 100 100 100 98 100 100 86 90 72 29 18 18 16 13 12 10 7 5 5 4 4 5 99 100
5 6 8 10 14 16 31 50 62 53 44 66 80 81 86 100 100 100 100 100 95 71 66 65 55 38 23 13 9 7 6 5 6 6 6 5 5 4 4 5 4 4 84 100
7 10 11 17 26 24 32 50 57 62 69 72 64 70 86 100 100 94 77 63 29 23 23 17 15 13 13 25 28 27 28 32 32 32 32 28 24 12 10 5 4 22 80 100
9 12 17 20 28 36 42 39 46 60 71 71 71 76 99 95 69 64 48 34 22 20 29 30 25 22 26 28 24 22 25 26 28 35 47 50 42 34 23 9 7 60 83 100
11 12 18 32 31 37 40 44 44 51 54 65 69 77 81 59 43 39 30 32 35 37 28 20 18 16 14 13 14 14 14 13 16 30 69 85 69 43 31 16 18 83 90 100
16 19 23 33 41 41 41 45 56 52 51 41 36 36 30 24 27 34 35 34 31 24 22 20 17 18 20 21 15 13 11 11 13 14 18 71 87 66 48 20 50 93 96 100
20 27 36 38 42 46 54 60 61 71 71 61 52 35 25 27 29 30 32 33 31 27 24 19 18 18 19 23 19 13 14 15 13 11 13 29 58 56 57 23 58 100 100 100
20 24 31 38 45 47 48 49 56 67 73 76 72 68 66 63 63 58 52 45 41 34 28 25 24 25 29 27 23 18 17 16 18 18 12 12 42 68 64 39 36 100 100 100
24 33 39 45 48 48 46 54 68 76 79 89 93 94 92 91 90 85 80 72 68 64 59 57 52 48 44 38 28 23 22 22 20 21 15 12 18 69 63 55 20 100 100 100
36 31 26 26 31 44 93 100 100 100 100 100 100 100 100 97 98 100 100 98 89 84 79 74 69 64 56 50 44 42 34 28 26 20 15 14 12 49 58 55 52 38 100 100
34 51 68 93 100 100 100 100 100 100 100 100 100 100 96 93 92 94 95 94 88 85 80 75 70 64 59 51 41 36 31 30 28 23 22 18 13 39 54 47 51 35 79 100
57 87 100 100 100 100 100 100 100 99 99 99 99 100 96 96 91 86 91 85 84 72 69 65 65 64 57 48 45 41 39 37 35 28 29 25 14 65 73 64 46 53 30 93
83 86 90 88 86 100 100 100 100 100 99 98 98 98 99 100 100 100 97 98 97 97 92 79 68 60 56 50 46 40 34 36 36 26 24 23 15 71 99 81 73 51 41 35
82 90 95 98 98 95 80 74 70 69 72 77 76 73 70 65 54 49 51 63 72 74 76 77 71 64 57 48 43 40 33 32 34 35 22 20 14 52 100 99 88 78 59 37
96 98 98 96 94 94 95 95 97 98 100 100 100 98 91 74 61 58 55 53 51 49 47 48 52 58 52 45 42 48 49 36 37 40 29 21 17 26 90 100 89 79 81 43
96 98 100 100 100 100 100 100 100 100 100 99 91 80 71 66 64 64 65 68 62 59 57 60 60 56 51 48 45 45 53 52 47 46 36 19 22 38 82 100 92 98 100 60
55 59 63 66 70 70 69 61 56 49 43 38 32 30 29 29 30 33 37 43 51 59 60 60 62 61 60 57 51 49 52 53 52 54 47 22 25 63 100 100 100 100 100 71
37 33 29 28 28 27 25 24 24 25 31 39 45 48 48 44 37 33 32 30 28 26 27 38 51 56 58 63 62 51 51 54 54 58 55 37 28 52 100 100 100 100 100 100
18 21 24 28 33 37 41 42 43 40 42 55 60 62 64 66 67 70 74 69 54 39 31 27 24 30 46 53 61 62 53 53 52 52 58 50 28 43 100 100 100 100 100 100
30 32 32 30 28 27 27 27 31 52 60 65 69 73 72 70 70 74 79 80 74 64 54 45 30 24 23 39 50 57 59 57 57 54 57 55 30 35 99 100 100 100 100 100
Wind_Speed
60 62 66 71 74 76 76 79 81 83 85 85 85 86 86 88 89 89 88 79 71 60 44 32 26 21 15 15 15 19 21 20 19 21 21 23 23 23 23 29 30 35 42 45
64 66 72 74 76 76 79 81 85 87 90 87 87 89 89 83 71 55 44 36 29 15 13 17 17 9 8 11 14 20 21 21 21 21 20 22 24 25 27 31 31 44 49 49
69 71 72 75 77 82 84 86 86 86 87 88 85 76 55 44 38 34 28 27 22 19 13 5 10 23 14 13 10 11 17 20 21 21 23 25 27 27 30 33 32 47 40 41
70 72 74 81 82 80 81 81 81 82 81 77 65 50 37 35 31 27 29 26 25 21 5 11 12 9 10 14 13 18 20 23 23 23 26 25 27 27 31 34 38 45 39 38
73 74 76 74 70 70 71 71 66 64 54 44 42 37 32 38 32 30 29 24 19 20 11 17 14 14 9 14 18 20 23 24 24 26 26 27 31 33 36 35 39 46 39 36
71 71 73 69 70 70 69 66 58 52 48 44 47 46 39 36 34 34 25 15 9 12 13 16 9 10 12 13 18 21 23 24 26 28 29 31 34 38 39 39 43 46 40 28
65 66 66 62 59 52 46 40 30 21 19 20 26 28 31 31 39 26 14 9 12 14 9 10 12 14 14 16 18 21 24 26 29 31 33 35 35 37 39 42 43 43 37 21
60 55 51 39 32 26 19 16 16 20 20 21 20 20 21 20 16 7 8 8 11 7 7 11 13 16 16 18 22 23 24 27 30 32 35 37 40 41 42 42 42 39 33 18
53 47 39 25 19 18 14 15 16 15 15 16 16 17 15 12 10 9 9 7 5 4 5 8 10 13 16 19 21 25 28 32 36 39 42 45 45 45 44 42 40 37 31 19
40 32 22 19 17 15 16 17 19 17 15 15 16 16 15 12 7 5 3 5 7 7 7 9 11 14 17 19 22 26 29 30 31 32 34 36 33 35 36 34 31 32 28 19
26 23 18 19 19 19 21 22 22 22 20 19 18 15 15 12 9 8 6 6 6 7 5 7 9 12 14 17 20 23 26 29 30 32 33 31 31 31 31 27 23 25 25 20
23 24 22 24 25 25 23 24 25 23 21 20 19 16 15 15 15 13 11 10 9 9 9 9 12 15 17 18 20 22 26 28 28 30 31 31 30 27 26 24 18 19 21 18
27 27 25 25 24 25 26 25 24 23 23 21 19 18 18 18 17 17 16 15 15 15 15 17 18 20 22 23 22 22 25 28 29 30 30 30 29 25 23 19 13 14 14 12
30 29 28 27 26 27 26 26 26 26 26 26 25 25 23 22 21 21 22 22 23 24 26 27 27 28 29 29 27 26 27 29 32 34 33 33 30 24 21 17 12 8 9 9
34 33 34 34 36 36 35 34 32 33 33 32 31 30 30 29 29 30 30 30 30 30 32 33 33 34 33 33 32 31 33 33 34 34 35 35 33 24 19 17 18 14 8 5
40 41 42 42 43 42 41 40 40 40 40 39 39 37 36 36 36 36 36 36 36 37 37 37 38 38 38 38 38 37 38 39 38 38 36 34 34 27 21 19 23 19 14 10
41 44 46 47 47 43 42 42 42 43 43 44 45 46 48 49 47 45 44 44 44 44 44 44 43 43 43 43 43 43 41 41 41 41 39 36 33 29 23 22 23 27 22 19
43 42 38 36 36 37 38 41 44 45 47 46 47 47 46 45 45 46 47 47 47 47 47 46 46 44 44 46 47 47 47 45 45 46 42 34 32 29 25 23 23 26 30 25
36 41 40 41 43 44 41 38 41 43 45 48 49 51 54 52 52 52 53 52 52 52 53 53 52 51 50 49 47 44 43 41 35 34 31 28 27 26 23 23 19 25 33 32
40 43 45 47 50 53 54 55 60 61 59 59 59 60 61 61 62 63 64 63 63 63 62 61 58 56 53 51 51 50 49 43 37 32 28 26 24 23 21 23 23 23 31 37
45 46 49 53 57 60 62 64 64 64 65 65 66 65 65 65 64 64 66 67 68 67 64 62 61 58 55 52 49 49 52 49 43 36 29 25 25 23 22 26 29 30 29 38
52 52 53 55 56 58 60 61 63 65 67 67 68 69 71 70 67 65 63 62 61 61 61 61 61 60 58 55 51 47 45 45 42 38 32 27 28 24 23 23 25 30 36 39
56 56 57 58 60 61 62 64 65 67 68 70 71 71 70 68 66 65 64 63 61 59 56 55 55 54 54 53 50 46 44 43 41 39 32 29 29 26 23 18 18 22 33 37
58 58 58 59 60 62 63 64 65 66 67 68 69 68 68 68 67 68 68 66 64 62 59 56 53 51 50 49 48 47 46 45 43 39 35 30 30 29 24 20 15 21 24 32
59 60 61 61 60 60 60 59 57 54 50 49 50 51 52 53 56 55 58 60 61 63 62 60 57 53 50 49 47 46 47 47 46 42 38 33 32 33 28 24 19 18 26 28
57 54 51 48 46 44 43 43 44 45 45 44 44 45 46 47 47 48 47 46 47 50 53 55 58 58 54 51 49 47 46 47 47 45 39 36 34 37 34 29 25 21 22 24
46 46 46 45 44 43 43 41 38 38 40 41 40 40 41 41 40 39 40 41 43 44 44 44 48 53 57 55 51 49 46 47 47 45 41 38 37 38 39 34 31 28 26 26
Wind_Direction
291 289 287 288 290 291 292 293 293 294 293 293 290 287 285 285 286 289 290 291 289 288 285 281 297 306 255 257 246 250 257 264 264 265 266 276 278 279 278 286 273 284 285 270
287 289 291 292 291 292 292 293 293 294 293 292 291 291 293 295 299 303 301 295 288 270 276 286 303 293 254 245 249 260 258 268 271 273 275 278 281 282 289 295 281 299 286 267
290 292 291 290 292 292 295 296 295 295 294 294 295 298 299 303 305 302 305 299 291 238 335 245 250 271 250 272 254 260 257 267 267 270 280 286 289 290 298 301 298 310 284 274
291 291 292 295 296 298 297 296 295 294 294 293 294 294 298 296 298 308 299 286 283 259 244 253 249 256 230 249 265 266 267 263 267 278 286 285 290 294 298 304 308 312 298 277
293 294 294 296 299 295 295 297 294 294 294 293 291 288 288 285 288 301 302 286 272 262 246 240 248 255 280 270 269 267 260 266 275 284 286 294 292 295 298 302 318 318 308 283
297 296 298 302 300 302 300 302 301 299 296 294 296 288 280 280 279 286 291 282 224 297 267 238 227 247 259 275 285 280 275 277 285 289 292 291 292 294 302 308 317 321 314 278
298 300 302 304 303 304 305 311 312 333 350 351 348 317 304 295 278 289 276 298 279 289 261 237 252 255 261 274 288 288 286 285 284 283 285 290 294 299 304 309 317 320 318 274
300 302 304 301 306 319 334 359 7 359 356 0 3 7 5 0 346 309 312 290 283 277 265 267 261 265 270 278 285 285 287 289 290 290 291 295 298 299 302 309 314 318 318 271
302 303 303 308 327 336 337 336 344 346 342 352 354 6 7 5 352 317 286 266 296 315 308 295 290 285 282 282 285 291 292 291 290 291 290 292 294 296 298 304 309 312 312 290
300 296 296 312 315 313 310 324 328 329 328 330 331 346 345 332 318 322 302 286 295 295 296 300 298 300 305 310 312 310 310 310 309 309 306 300 299 295 294 295 296 310 305 303
289 289 294 296 303 305 305 305 307 314 317 316 319 326 317 310 308 298 290 274 268 271 294 316 318 318 314 313 313 313 312 312 315 313 311 307 301 296 292 287 293 303 297 303
288 288 286 284 296 302 304 295 293 299 305 303 306 310 302 299 292 288 276 262 252 253 257 276 288 295 298 300 306 313 313 316 319 324 321 313 304 299 292 288 288 297 299 307
285 280 282 285 288 292 292 291 289 290 292 292 290 290 289 292 290 280 270 264 263 264 274 279 280 282 288 296 304 313 318 319 318 319 323 319 309 303 297 282 281 297 297 318
283 282 284 285 287 288 285 284 286 287 287 288 288 290 288 288 285 280 276 273 273 273 272 276 280 285 290 295 299 304 310 315 321 318 318 320 314 300 290 277 256 289 311 322
283 286 285 283 284 284 284 284 282 282 282 281 280 281 283 283 283 282 281 280 279 277 278 279 281 284 287 292 297 297 301 303 309 313 315 314 314 304 285 266 249 246 263 281
288 286 283 281 279 280 281 282 280 280 280 280 278 276 274 276 277 278 279 278 278 278 279 280 282 284 287 290 292 295 297 298 298 304 308 306 307 300 279 266 251 228 220 212
287 283 280 277 277 277 276 275 276 277 278 278 278 279 280 281 281 281 280 280 280 280 280 281 282 284 286 287 288 290 290 290 291 295 296 297 293 294 280 268 249 234 215 213
288 285 281 282 282 283 283 283 282 279 280 276 279 278 283 282 279 279 279 280 280 281 282 283 284 285 288 292 293 293 292 291 292 295 291 284 277 286 275 265 245 231 224 212
293 285 278 272 273 275 274 274 279 280 279 278 278 278 281 280 279 278 276 277 278 279 280 282 282 283 285 288 290 296 297 292 293 294 284 265 265 275 263 249 245 232 226 219
290 286 283 281 280 280 274 272 280 285 285 283 282 280 277 276 274 273 274 273 273 275 278 280 281 282 282 285 287 291 294 293 293 291 284 259 254 269 248 239 245 241 231 225
294 288 283 279 278 280 283 283 284 285 286 286 286 285 285 284 282 277 274 272 271 272 272 273 274 275 275 276 277 279 283 284 283 282 279 259 247 254 250 248 248 241 237 226
298 294 290 287 285 283 282 281 281 282 284 284 284 284 285 285 284 281 278 275 272 270 268 267 267 267 268 268 268 266 265 270 269 272 271 259 244 244 249 255 250 244 231 225
298 295 292 290 288 286 285 284 284 284 283 283 283 282 282 281 279 277 276 276 275 273 271 268 266 265 264 262 260 258 256 255 256 261 261 252 243 239 244 253 242 234 220 217
301 299 297 294 292 291 289 288 287 286 286 286 284 283 282 280 278 277 274 271 270 269 268 267 266 263 261 259 256 252 248 248 248 250 252 249 239 232 234 239 227 218 216 219
305 302 300 297 295 294 293 292 292 292 292 290 289 287 285 283 281 277 276 274 272 268 264 260 259 258 256 255 253 249 244 242 243 243 245 244 237 227 226 227 224 215 219 226
307 306 305 304 304 303 302 300 299 298 298 298 298 296 294 291 287 284 282 280 278 274 269 263 257 252 251 249 248 246 242 238 238 239 238 238 233 224 222 220 220 214 213 215
313 310 309 307 306 305 303 302 301 301 301 302 303 303 301 300 298 295 290 287 285 282 277 270 261 252 245 243 243 242 238 235 233 235 233 232 229 222 218 219 218 216 212 214